Retour au catalogue

COSMOS 2299

ActifMilitairePO
NORAD 23441·PAYLOAD·🇷🇺 Russia

Lancé Dec 26, 1994 depuis Plesetsk Cosmodrome

Loading…

Prochains Passages (prochaines 24 heures)

TLE

FraisSource: Space-Track

Époque: Sep 14, 2026, 07:50 UTC

1 23441U 94086A   26257.32675082 -.00000002  00000-0 -66844-4 0  9992
2 23441  82.5652 239.7576 0007455   7.9628 352.1581 12.63800564462963

Suivez COSMOS 2299 en temps réel avec AllMySat

Download on the App Store